Regional Weather Roundup
Issued by NWS

Home | Current Version | Previous Version | Graphics & Text | Print | Product List | Glossary On
Versions: 1 2 3 4 5 6 7 8 9 10 11 12 13 14 15 16 17 18 19 20 21 22 23 24 25 26 27 28 29 30 31 32 33 34 35 36 37 38 39 40 41 42 43 44 45 46 47 48 49 50
000
ASUS45 KBOU 200607
RWRCO

WEATHER ROUNDUP FOR COLORADO
NATIONAL WEATHER SERVICE DENVER/BOULDER CO
1200 AM MDT WED AUG 20 2014

NOTE: "FAIR" INDICATES FEW OR NO CLOUDS BELOW 12000 FEET WITH NO
SIGNIFICANT WEATHER AND/OR OBSTRUCTIONS TO VISIBILITY.

COZ001>005-013-030-031-200700-
...NORTHWEST COLORADO...

CITY           SKY/WX    TMP DP  RH WIND       PRES   REMARKS
CRAIG          RAIN      58  53  84 E7        30.04S
HAYDEN         CLOUDY    55  52  88 E9        30.07F
MEEKER         CLOUDY    58  53  84 NE6       30.05F
MOUNT WERNER   NOT AVBL
STEAMBOAT SPGS CLOUDY    55  51  87 E7        30.10S
WALDEN         CLOUDY    52  46  82 S13       30.17R
$$

COZ006>008-011-200700-
...WEST CENTRAL VALLEYS...

CITY           SKY/WX    TMP DP  RH WIND       PRES   REMARKS
GRAND JUNCTION CLOUDY    62  60  93 NE5       29.98R
MONTROSE       CLOUDY    62  58  86 E3        30.05S
EAGLE          CLOUDY    57  55  94 E3        30.11F
RIFLE          CLOUDY    60  58  92 N3        30.02F
DELTA          RAIN      65  60  86 E3        30.02R
NUCLA          CLOUDY    64  52  63 SE5       30.09R
$$

COZ017>023-064>068-200700-
...SOUTHWEST COLORADO...

CITY           SKY/WX    TMP DP  RH WIND       PRES   REMARKS
DURANGO        CLOUDY    61  52  72 NE7       30.11F
CORTEZ         CLOUDY    61  59  93 CALM      30.08R
PAGOSA SPRINGS CLOUDY    56  53  89 CALM      30.19S
TELLURIDE      CLOUDY    54  52  94 CALM      30.22S
WOLF CREEK PAS NOT AVBL
$$

COZ009-010-012-014-032>034-037-058>063-200700-
...CENTRAL COLORADO...

CITY           SKY/WX    TMP DP  RH WIND       PRES   REMARKS
ASPEN          CLOUDY    54  52  93 N3        30.15F
BUENA VISTA    CLOUDY    56  50  80 W6        30.15S
COPPER MTN     FOG       45  41  87 S8        30.42F VSB 1
BERTHOUD PASS  DRIZZLE   37  36  93 N7        30.46S
COTTONWOOD PAS CLOUDY    59  41  51 W6        30.28S
GUNNISON       CLOUDY    57  48  72 CALM      30.16F
KREMMLING      RAIN      54  52  94 E7        30.16F
LEADVILLE      CLOUDY    49  45  86 N3        30.26F
MONARCH PASS   CLOUDY    45  37  76 SW22      30.52F
SALIDA         CLOUDY    60  52  76 SW3       30.19S
SUNLIGHT       CLOUDY    48  46  93 CALM      30.33F
WILKERSON PASS CLOUDY    50  36  57 S7        30.39F
$$

COZ069>075-200700-
...SAN LUIS VALLEY/SANGRE DE CRISTO MOUNTAINS...

CITY           SKY/WX    TMP DP  RH WIND       PRES   REMARKS
ALAMOSA        CLOUDY    61  41  47 CALM      30.12S
LA VETA PASS   CLOUDY    54  37  54 S12G23    30.29F
SAGUACHE       CLOUDY    63  43  48 NW9       30.16S
$$

COZ035-036-038>040-200700-
...NORTHERN COLORADO FRONT RANGE...

CITY           SKY/WX    TMP DP  RH WIND       PRES   REMARKS
DENVER INTL AP MOCLDY    65  56  72 SE6       29.93F
DMNS CITY PARK   N/A     68  53  58 SE2       29.92F
AURORA         MOCLDY    64  55  73 SE7       29.96S
FRONT RANGE AP MOCLDY    66  55  68 S8        29.95S
ERIE MUNI ARPT CLOUDY    65  53  65 CALM      29.92R
BOULDER MUN AP DRIZZLE   68  50  52 CALM      29.91F
CENTENNIAL     CLOUDY    64  52  64 S6        29.96F
BROOMFIELD     CLOUDY    70  46  43 CALM      29.96R
FORT COLLINS   CLOUDY    70  54  56 NE8       29.92S
LONGMONT       CLOUDY    67  52  58 CALM      29.92S
$$

COZ041-046-047-076>085-087-088-200700-
...PIKES PEAK/PALMER DIVIDE AND SOUTHERN FOOTHILLS...

CITY           SKY/WX    TMP DP  RH WIND       PRES   REMARKS
COLO. SPRINGS  CLOUDY    65  50  58 W3        30.01S
A. F. ACADEMY  CLOUDY    61  51  70 NW3       30.03R
ELLICOTT       CLOUDY    64  46  52 E7        29.98F
FALCON         CLOUDY    61  49  62 N5        30.06S
FORT CARSON    CLOUDY    64  50  59 W6        29.98S
LIMON          CLOUDY    64  50  60 NW3       29.94S
MONUMENT HILL  CLOUDY    59  48  67 S5        30.05S
TRINIDAD       MOCLDY    69  48  47 SW10      29.96F
$$

COZ042>045-048>051-090-091-200700-
...NORTHEAST COLORADO...

CITY           SKY/WX    TMP DP  RH WIND       PRES   REMARKS
GREELEY ARPT   MOCLDY    63  52  67 SE7       29.91S
AKRON          CLOUDY    64  60  87 W6        29.89S
BURLINGTON     MOCLDY    74  51  44 S10       29.88F
WRAY             N/A     69  61  75 E6        29.83R
STERLING       CLOUDY    64  63  94 CALM      29.85R
HOLYOKE        NOT AVBL
FORT MORGAN    CLOUDY    63  55  77 E3        29.89F
$$

COZ086-089-092>099-200700-
...SOUTHEAST COLORADO...

CITY           SKY/WX    TMP DP  RH WIND       PRES   REMARKS
PUEBLO         CLOUDY    72  50  45 NW12      29.88S
LA JUNTA       MOCLDY    77  52  41 S7        29.85S
LAMAR          CLOUDY    80  55  42 S17G24    29.83R
SPRINGFIELD      N/A     72  56  57 S13       29.92S
$$


USA.gov is the U.S. government's official web portal to all federal, state and local government web resources and services.